Simultaneous Nadir Overpasses (SNOs) Predictions

Prediction of SNOs between GOES-15 and TERRA Satellite Orbit:

Table of predicted SNOs for the next 14.0 days since TLE Epoch: 11/25/2011
Index Date Time (GOES-15) GOES-15 Lat,Lon TERRA Lat,Lon Distance(km) Time Diff (sec)
1 11/26/2011 06:19:39 0.16,-121.12 0.84,-117.99 356.40 80
2 11/26/2011 18:43:37 -0.14,-121.78 0.18,-123.17 158.86 80
3 11/28/2011 18:28:56 -0.14,-123.37 -0.79,-120.30 349.02 80
4 11/29/2011 06:53:02 0.13,-123.55 -0.27,-125.51 222.50 80
5 12/01/2011 06:38:20 0.13,-125.15 0.66,-122.63 286.08 80
6 12/01/2011 19:02:19 -0.12,-125.81 0.29,-127.82 228.17 80
7 12/03/2011 18:47:37 -0.12,-127.41 -0.65,-124.95 279.82 80
8 12/04/2011 07:11:42 0.11,-127.57 -0.46,-130.14 292.51 80
9 12/06/2011 06:57:00
